Погода в Шокине

Россия / Смоленская область     54°58′31″N   32°25′33″E
темп.,
°C
ветер,
м/с
пор.,
м/с
влажн.,
%
обл.,
%
осадки,
мм/ч
давл.,
гПа
погр.,
м
25 января, вт
вт2500:00−19ююз24100100 0.0 103243
03:00−18ююз2710080 0.0 103092
06:00−15ююз3996100 0.0 1027141
09:00−12ююз41093100 0.0 1024216
12:00−9ююз499592 0.1 1022255
15:00−6ююз3795100 0.4 1019329
18:00−7ююз3896100 0.3 1017250
21:00−5зюз2697100 1.4 1016197
26 января, ср
ср2600:00−4ссз31097100 0.4 1016359
03:00−2с499096 0.4 1017655
06:00−8ссз389797 0.0 1018196
09:00−13ссз2499100 0.1 102068
12:00−8с239499 0.0 1020241
15:00−7ссз239262 0.1 1020292
18:00−15зсз1110068 0.0 10209
21:00−18юз11100100 0.0 10209
27 января, чт
чт2700:00−18ю24100100 0.0 101847
03:00−12ю3896100 0.1 1016187
06:00−12ю41196100 0.0 1013251
09:00−9ю41295100 0.6 1010398
12:00−7ю4995100 0.4 1009350
15:00−5ю4895100 0.8 1007356
18:00−4ю4997100 0.3 1005279
21:00−1ю4109796 0.4 1003588
28 января, пт
пт2800:00−1ю51297100 0.3 1000645
03:00−1ю51297100 1.1 998751
06:00−1ю51298100 1.8 996733
09:00−1ююз41098100 3.4 995561
12:000юз3899100 0.9 996540
15:000ююз37100100 1.2 996440
18:000ю2699100 0.4 997309
21:00−2ююз1199100 0.8 99810
29 января, сб
сб2900:00−1сз259899 0.2 1000198
03:00−3ссз61393100 0.8 1003545
06:00−6ссз6139099 0.1 1006536
09:00−9ссз51292100 0.1 1010455
12:00−9ссз51291100 0.0 1012483
15:00−7сз4891100 0.1 1012520
18:00−10зсз259697 0.1 101390
21:00−8юз3691100 0.1 1009204